Hourly Observations for July 12, 2018

Temp ( °F °C ) Dew Point ( °F °C ) Humidity (%) Winds ( mph kmh ) Pressure ( in mb ) Visibility ( mi km ) Precip ( " mm )
12:53 am 00:53 Partly Cloudy 74 23.3 69 20.6 85 85 Calm 29.83 1010 10 16.09344 0 0
1:53 am 01:53 Clear 73 22.8 69 20.6 87 87 Calm 29.83 1010 10 16.09344 0 0
2:53 am 02:53 Clear 74 23.3 70 21.1 88 88 S 5 7 29.83 1010 10 16.09344 0 0
3:53 am 03:53 Clear 75 23.9 70 21.1 84 84 S 5 7 29.83 1010 10 16.09344 0 0
4:53 am 04:53 Clear 74 23.3 69 20.6 85 85 S 3 6 29.83 1010 10 16.09344 0 0
5:53 am 05:53 Sunny 74 23.3 70 21.1 88 88 SSW 5 7 29.83 1010 10 16.09344 0 0
6:53 am 06:53 Sunny 76 24.4 71 21.7 85 85 SSW 8 13 29.85 1011 10 16.09344 0 0
7:36 am 07:36 Mostly Cloudy 77 25 71 21.7 82 82 SW 8 13 29.88 1012 10 16.09344 0 0
7:53 am 07:53 Mostly Cloudy 79 26.1 72 22.2 79 79 SW 7 11 29.85 1011 10 16.09344 0 0
8:06 am 08:06 Mostly Sunny 79 26.1 73 22.8 82 82 SW 10 17 29.88 1012 10 16.09344 0 0
8:36 am 08:36 Mostly Cloudy 79 26.1 73 22.8 82 82 SW 8 13 29.88 1012 10 16.09344 0 0
8:53 am 08:53 Partly Cloudy 80 26.7 73 22.8 79 79 SW 9 15 29.85 1011 10 16.09344 0 0
9:53 am 09:53 Mostly Sunny 81 27.2 74 23.3 79 79 SW 3 6 29.85 1011 10 16.09344 0 0
10:53 am 10:53 Partly Cloudy 85 29.4 74 23.3 70 70 WSW 10 17 29.85 1011 10 16.09344 0 0
11:53 am 11:53 Sunny 88 31.1 74 23.3 63 63 WSW 7 11 29.83 1010 10 16.09344 0 0
12:53 pm 12:53 Sunny 91 32.8 75 23.9 59 59 SW 9 15 29.83 1010 10 16.09344 0 0
1:53 pm 13:53 Sunny 91 32.8 75 23.9 59 59 WSW 10 17 29.83 1010 10 16.09344 0 0
2:53 pm 14:53 Mostly Sunny 92 33.3 75 23.9 58 58 S 6 9 29.8 1009 10 16.09344 0 0
3:53 pm 15:53 Sunny 93 33.9 75 23.9 56 56 WSW 10 17 29.77 1008 10 16.09344 0 0
4:53 pm 16:53 Sunny 92 33.3 75 23.9 58 58 WSW 8 13 29.77 1008 10 16.09344 0 0
5:53 pm 17:53 Sunny 90 32.2 75 23.9 62 62 SW 7 11 29.77 1008 10 16.09344 0 0
6:53 pm 18:53 Sunny 88 31.1 74 23.3 63 63 SW 6 9 29.77 1008 10 16.09344 0 0
7:53 pm 19:53 Sunny 86 30 73 22.8 65 65 SSW 7 11 29.77 1008 10 16.09344 0 0
8:53 pm 20:53 Clear 84 28.9 73 22.8 70 70 SW 6 9 29.77 1008 10 16.09344 0 0
9:53 pm 21:53 Clear 82 27.8 73 22.8 74 74 WSW 7 11 29.77 1008 10 16.09344 0 0
10:53 pm 22:53 Clear 79 26.1 72 22.2 79 79 WSW 6 9 29.77 1008 10 16.09344 0 0
11:53 pm 23:53 Clear 77 25 71 21.7 82 82 W 5 7 29.77 1008 10 16.09344 0 0

Powered by AerisWeather

Site Deisgn Provided by Innovations Branding House, Paducah, KY